sat.trackr.live / text

‹ back to catalog

STARLINK-36699

NORAD 67652 · 2026-022E

PAYLOAD ACTIVE UNKNOWN

§ Identity

Operator
Country
US
Launch date
2026-02-02
Launch site
AFWTR
Launch vehicle
Mass (kg)
RCS (m²)

Purposes: comms

External: N2YO · Heavens-Above · Gunter

§ Orbital elements

Epoch: 2026-09-19T00:35:48.762816Z

Period
93.91 min
Inclination
97.2857°
Eccentricity
0.0001211
Mean motion
15.33451014 rev/d
Perigee alt
464.7 km
Apogee alt
466.4 km
Semi-major
6,843.7 km
B*
2.7681e-4
RAAN
293.6442°
Arg perigee
74.0085°
Mean anomaly
286.1291°
Rev number
3,520

§ Raw data

STARLINK-366991 67652U 26022E   26262.02486994  .00008874  00000+0  27681-3 0  99912 67652  97.2857 293.6442 0001211  74.0085 286.1291 15.33451014 35201

JSON: /api/v1/satellites/67652 · /tle

For live sub-satellite position, see the globe view (requires WebGL).

§ Visibility from observer

Set your observer location to see the next 7 days of passes ≥ 10°. The values pass through the URL so the page stays shareable.

No JS? Fill the form by hand. The geolocation button needs JavaScript.